Location: Newark
(35.8967°N, 14.4625°E)
Time: 05:38:17
(UTC+00:00)

N. Korean satellite - Pass Details

Date: 21 November 2019
Orbit: 456 x 506 km, 97.2° (Epoch: 05 December)

Event Time Altitude Azimuth Distance (km) Brightness Sun altitude
Rises 03:45:47 0° 38° (NE) 2,596 10.7 -23.8°
Reaches altitude 10° 03:49:23 10° 75° (ENE) 1,695 10.2 -23.0°
Maximum altitude 03:50:25 11° 92° (E) 1,630 10.3 -22.8°
Drops below altitude 10° 03:51:26 10° 108° (ESE) 1,684 10.4 -22.6°
Sets 03:54:58 0° 146° (SE) 2,543 10.9 -21.9°
